Location: Unspecified
(33.6682°S, 0.0000°E)
Time: 18:32:33
(UTC+00:00)

Tiros 1 despin weight - Pass Details

Date: 25 June 2019
Orbit: 594 x 642 km, 48.2° (Epoch: 24 August)

Event Time Altitude Azimuth Distance (km) Brightness Sun altitude
Rises 12:41:51 0° 237° (WSW) 2,954 ? 32.2°
Reaches altitude 10° 12:45:22 10° 210° (SSW) 2,052 ? 32.0°
Maximum altitude 12:47:44 14° 180° (S) 1,827 ? 31.9°
Drops below altitude 10° 12:50:06 10° 150° (SSE) 2,058 ? 31.8°
Sets 12:53:38 0° 123° (ESE) 2,968 ? 31.7°
